TimeCDT,TemperatureF,Dew PointF,Humidity,Sea Level PressureIn,VisibilityMPH,Wind Direction,Wind SpeedMPH,Gust SpeedMPH,PrecipitationIn,Events,Conditions,WindDirDegrees,DateUTC
12:53 AM,45.0,41.0,86,30.27,10.0,NE,4.6,-,N/A,,Clear,40,2013-04-21 05:53:00
1:53 AM,46.0,39.9,79,30.26,10.0,NNE,5.8,-,N/A,,Clear,30,2013-04-21 06:53:00
2:53 AM,46.0,41.0,83,30.26,10.0,NE,4.6,-,N/A,,Clear,40,2013-04-21 07:53:00
3:53 AM,45.0,39.9,82,30.27,10.0,NE,5.8,-,N/A,,Clear,40,2013-04-21 08:53:00
4:53 AM,45.0,39.9,82,30.27,10.0,NNE,3.5,-,N/A,,Clear,30,2013-04-21 09:53:00
5:53 AM,44.1,39.0,82,30.28,10.0,NNE,4.6,-,N/A,,Clear,30,2013-04-21 10:53:00
6:53 AM,45.0,39.9,82,30.30,10.0,NE,3.5,-,N/A,,Clear,40,2013-04-21 11:53:00
7:53 AM,48.0,41.0,77,30.32,10.0,NE,5.8,-,N/A,,Clear,40,2013-04-21 12:53:00
8:53 AM,54.0,41.0,62,30.33,10.0,ENE,4.6,-,N/A,,Clear,60,2013-04-21 13:53:00
9:53 AM,59.0,35.1,41,30.33,10.0,East,6.9,-,N/A,,Clear,80,2013-04-21 14:53:00
10:53 AM,62.1,33.1,34,30.32,10.0,ESE,9.2,-,N/A,,Clear,120,2013-04-21 15:53:00
11:53 AM,64.9,36.0,34,30.30,10.0,East,8.1,16.1,N/A,,Clear,90,2013-04-21 16:53:00
12:53 PM,66.9,34.0,30,30.26,10.0,SE,10.4,-,N/A,,Clear,130,2013-04-21 17:53:00
1:53 PM,69.1,34.0,27,30.24,10.0,East,8.1,-,N/A,,Clear,100,2013-04-21 18:53:00
2:53 PM,70.0,30.9,24,30.22,10.0,East,9.2,-,N/A,,Clear,80,2013-04-21 19:53:00
3:53 PM,70.0,30.0,23,30.19,10.0,East,4.6,-,N/A,,Clear,80,2013-04-21 20:53:00
4:53 PM,71.1,32.0,24,30.18,10.0,NE,11.5,-,N/A,,Clear,40,2013-04-21 21:53:00
5:53 PM,70.0,35.1,28,30.18,10.0,ENE,5.8,-,N/A,,Clear,60,2013-04-21 22:53:00
6:53 PM,66.0,37.0,34,30.18,10.0,NE,5.8,-,N/A,,Clear,50,2013-04-21 23:53:00
7:53 PM,62.1,41.0,46,30.19,10.0,Calm,Calm,-,N/A,,Clear,0,2013-04-22 00:53:00
8:53 PM,59.0,42.1,53,30.20,10.0,NE,4.6,-,N/A,,Clear,50,2013-04-22 01:53:00
9:53 PM,54.0,46.0,75,30.20,10.0,ENE,5.8,-,N/A,,Clear,70,2013-04-22 02:53:00
10:53 PM,54.0,44.1,69,30.20,10.0,NE,4.6,-,N/A,,Clear,50,2013-04-22 03:53:00
11:53 PM,52.0,44.1,74,30.19,10.0,ENE,3.5,-,N/A,,Clear,60,2013-04-22 04:53:00